User: anonymous   Login
Location: Unspecified
(51.0950°N, 12.9690°E)
Time: 09:50:15
(UTC+00:00)
Language:

KSM1-C - Orbit

View from above orbital plane
View from above orbital plane
View from above satellite
View from above satellite

Ground track
Ground track

The orbit data is extracted from the following two-line orbital elements,

1 46907U 20081C   24205.72301827  .00010970  00000-0  67901-3 0  9993
2 46907  36.8994 330.5506 0005654 226.4633 133.5642 15.09260423203680
Epoch (UTC): 23 July 2024 17:21:08
Eccentricity: 0.0005654
inclination: 36.8994°
perigee height: 534 km
apogee height: 542 km
right ascension of ascending node: 330.5506°
argument of perigee: 226.4633°
revolutions per day: 15.09260423
mean anomaly at epoch: 133.5642°
orbit number at epoch: 20368

The dashed part of the orbit path shows where the satellite is in the earth's shadow,  

DLR